Regional Weather Roundup
Issued by NWS

Home | Current Version | Previous Version | Graphics & Text | Print | Product List | Glossary On
Versions: 1 2 3 4 5 6 7 8 9 10 11 12 13 14 15 16 17 18 19 20 21 22 23 24 25 26 27 28 29 30 31 32 33 34 35 36 37 38 39 40 41 42 43 44 45 46 47 48 49 50
279
ASUS45 KSLC 190310
RWRUT

UTAH REGIONAL WEATHER ROUNDUP
NATIONAL WEATHER SERVICE SALT LAKE CITY UT
800 PM MST SAT FEB 18 2017

UTZ001>011-023>025-190400-

NORTHERN UTAH

CITY           SKY/WX    TMP DP  RH WIND       PRES   REMARKS
BRIGHAM CITY     N/A     43  37  79 CALM      29.61S
HILL AFB       CLOUDY    46  37  70 SE8       29.60S
LOGAN          CLOUDY    39  35  86 N5        29.61R
OGDEN          LGT RAIN  47  38  71 E8        29.59S
SALT LAKE CITY CLOUDY    50  35  56 S6        29.59S
TOOELE VALLEY  CLOUDY    46  37  71 S7        29.60S
WENDOVER       CLOUDY    45  39  81 NW5       29.56S
HEBER CITY     CLOUDY    45  30  57 CALM      29.65S
WEST JORDAN    CLOUDY    52  43  72 S10       29.61S

$$

UTZ011>015-024>027-190400-

CENTRAL/NORTHEAST UTAH

CITY           SKY/WX    TMP DP  RH WIND       PRES   REMARKS
PROVO AIRPORT  CLOUDY    50  33  52 SE13      29.63S
MOAB/CANYONLAN CLOUDY    43  42  97 SW3       29.71S
DELTA          CLOUDY    43  39  87 E7        29.64S
PRICE          CLOUDY    36  36 100 NE6       29.74S WCI  31
RICHFIELD      MOCLDY    46  34  61 SE1       29.67S
ROOSEVELT      CLOUDY    39  36  87 N6        29.77S WCI  35
VERNAL         CLOUDY    36  34  92 CALM      29.75S

$$

UTZ013>016-019>022-027-190400-

SOUTHERN UTAH

CITY           SKY/WX    TMP DP  RH WIND       PRES   REMARKS
BRYCE CANYON   CLOUDY    33  32  96 SE10      29.72S FOG     WCI  25
CEDAR CITY     CLOUDY    40  35  83 CALM      29.63F
MILFORD        CLOUDY    41  38  89 SW9       29.63S
ST GEORGE      CLOUDY    51  46  83 W6        29.62R
HANKSVILLE     CLOUDY    43  41  93 NE5       29.74R
KANAB          MOCLDY    45  41  87 N7        29.71S
BLANDING       CLOUDY    45  36  69 N8        29.77R

$$

REGIONAL REPORTS     COLORADO/ARIZONA

CITY           SKY/WX    TMP DP  RH WIND       PRES   REMARKS
CRAIG, CO      CLOUDY    34  30  85 CALM      29.77F
GRAND JUNCTION CLOUDY    42  39  89 CALM      29.73S
RIFLE, CO      CLOUDY    41  33  73 S3        29.74S
MONTROSE, CO   CLOUDY    41  35  79 NE8       29.76S
CORTEZ, CO     CLOUDY    49  31  49 SE5       29.73R
COLORADO CITY  MOCLDY    48  37  66 E7        29.68R
PAGE, AZ       MOCLDY    46  40  79 SW3       29.67R
GRAND CANYON   CLOUDY    38  37  97 E5        29.68F WCI  34
KINGMAN, AZ    CLOUDY    50  37  61 SE22      29.59R
FLAGSTAFF, AZ  LGT RAIN  37  34  89 S7        29.70R FOG     WCI  32

$$

REGIONAL REPORTS    NEVADA/IDAHO/WYOMING

CITY           SKY/WX    TMP DP  RH WIND       PRES   REMARKS
LAS VEGAS, NV  CLOUDY    52  49  89 E10       29.59R
ELY, NY        CLOUDY    36  34  92 S15       29.60R WCI  27
ELKO, NV       LGT RAIN  41  38  89 SW5       29.53R
POCATELLO, ID  CLOUDY    46  36  68 S12       29.57S
BURLEY, ID     CLOUDY    47  35  63 CALM      29.50S
FORT BRIDGER,    N/A     33  33 100 CALM      29.70F
EVANSTON, WY   CLOUDY    34  28  79 E9        29.67S WCI  27
ROCK SPRINGS,  CLOUDY    37  30  75 E6        29.69S WCI  32
KEMMERER, WY     N/A     34  30  86 NE5       29.69S WCI  30

$$




USA.gov is the U.S. government's official web portal to all federal, state and local government web resources and services.